Flagstaff, AZ

10:29 PM MST on April 26, 2017 (GMT -0700)
Flagstaff Pulliam

Weather History for KFLG - May, 2014

Change the Weather History Date:

Thursday, May 8, 2014

  Actual Average Record
Temperature  
Mean Temperature 44 °F 50 °F  
Max Temperature 58 °F 65 °F 85 °F (1989)
Min Temperature 30 °F 34 °F 17 °F (1965)
Degree Days  
Heating Degree Days 21 15  
Month to date heating degree days 123 131  
Since 1 July heating degree days 6124 6487  
Cooling Degree Days 0 0  
Month to date cooling degree days 0 0  
Year to date cooling degree days 0 0  
Moisture  
Dew Point 27 °F    
Average Humidity 61    
Maximum Humidity 100    
Minimum Humidity 21    
Precipitation  
Precipitation 0.04 in 0.02 in 0.77 in (1976)
Month to date precipitation 0.05 0.18  
Year to date precipitation 3.14 7.66  
Snow  
Snow 0.40 in 0.10 in 4.70 in (1979)
Month to date snowfall 0.4 0.5  
Since 1 July snowfall 44.4 101.5  
Snow Depth 0.00 in    
Sea Level Pressure  
Sea Level Pressure 29.97 in    
Wind  
Wind Speed 8 mph (WSW)    
Max Wind Speed 23 mph    
Max Gust Speed 29 mph    
Visibility 8 miles    
Events Snow    
T = Trace of Precipitation, MM = Missing Value Source: NWS Daily Summary

Daily Weather History Graph

Daily Weather History Graph

Search for Another Location

Airport or City:

Trip Planner

Search our weather history database for the weather conditions in past years. The results will help you decide how hot, cold, wet, or windy it might be!

Date:

Astronomy

May. 08, 2014 Rise Set
Actual Time 5:28 AM MST 7:18 PM MST
Civil Twilight 5:01 AM MST 7:45 PM MST
Nautical Twilight 4:27 AM MST 8:19 PM MST
Astronomical Twilight 3:52 AM MST 8:55 PM MST
Moon 1:35 PM MST (5/8) 1:47 AM MST (5/8)
Length of Visible Light 14h 44m
Length of Day
13h 49m
Waxing Gibbous, 66% of the Moon is Illuminated
May 8
Waxing Gibbous
May 14
Full
May 21
Last Quarter
May 28
New
Jun 5
First Quarter

Hourly Weather History & Observations

Time (MST) Temp. Windchill Dew Point Humidity Pressure Visibility Wind Dir Wind Speed Gust Speed Precip Events Conditions
12:57 AM 30.0 °F - 28.9 °F 96% 29.91 in 10.0 mi Calm Calm - N/A   Mostly Cloudy
1:57 AM 30.9 °F - 30.0 °F 96% 29.90 in 10.0 mi Calm Calm - N/A   Overcast
2:45 AM 33.1 °F 26.9 °F 30.0 °F 89% 30.02 in 2.5 mi Variable 6.9 mph - 0.00 in Snow Light Snow
2:54 AM 33.8 °F 27.7 °F 30.2 °F 87% 30.02 in 1.5 mi Variable 6.9 mph - 0.01 in Snow Light Snow
2:57 AM 33.1 °F 27.7 °F 30.9 °F 92% 29.92 in 1.0 mi Variable 5.8 mph - 0.01 in Snow Light Snow
3:13 AM 33.1 °F - 30.9 °F 92% 30.01 in 3.0 mi Calm Calm - 0.02 in Snow Light Snow
3:24 AM 32.0 °F 28.7 °F 30.0 °F 92% 30.01 in 9.0 mi South 3.5 mph - 0.02 in   Scattered Clouds
3:57 AM 32.0 °F 28.7 °F 30.0 °F 92% 29.91 in 10.0 mi West 3.5 mph - 0.02 in   Mostly Cloudy
4:57 AM 30.9 °F - 28.9 °F 92% 29.94 in 10.0 mi Calm Calm - N/A   Overcast
5:57 AM 30.9 °F 27.5 °F 28.9 °F 92% 29.98 in 10.0 mi WSW 3.5 mph - 0.00 in   Partly Cloudy
6:41 AM 33.1 °F 27.7 °F 30.0 °F 89% 30.05 in 1.8 mi Variable 5.8 mph - 0.00 in Snow Light Snow
6:57 AM 34.0 °F 28.0 °F 30.0 °F 85% 29.97 in 2.5 mi NNW 6.9 mph - 0.01 in Snow Light Snow
7:01 AM 34.0 °F 31.0 °F 30.9 °F 89% 30.04 in 5.0 mi NNW 3.5 mph - 0.00 in   Overcast
7:57 AM 37.9 °F - 33.1 °F 83% 29.98 in 5.0 mi Calm Calm - 0.00 in   Haze
8:57 AM 45.0 °F 39.7 °F 33.1 °F 63% 29.96 in 10.0 mi West 10.4 mph - N/A   Clear
9:57 AM 48.0 °F - 28.0 °F 46% 29.96 in 10.0 mi West 5.8 mph - N/A   Mostly Cloudy
10:57 AM 48.0 °F - 27.0 °F 44% 29.97 in 10.0 mi NW 8.1 mph - N/A   Mostly Cloudy
11:57 AM 51.1 °F - 21.9 °F 32% 29.96 in 10.0 mi WNW 9.2 mph 21.9 mph N/A   Mostly Cloudy
12:57 PM 54.0 °F - 21.9 °F 29% 29.96 in 10.0 mi West 9.2 mph - N/A   Mostly Cloudy
1:57 PM 55.0 °F - 21.0 °F 27% 29.95 in 10.0 mi West 10.4 mph - N/A   Mostly Cloudy
2:57 PM 57.0 °F - 18.0 °F 22% 29.92 in 10.0 mi West 12.7 mph 23.0 mph N/A   Scattered Clouds
3:57 PM 55.9 °F - 24.1 °F 29% 29.93 in 10.0 mi WSW 13.8 mph 21.9 mph N/A   Mostly Cloudy
4:57 PM 57.0 °F - 21.9 °F 26% 29.94 in 10.0 mi SW 18.4 mph 25.3 mph N/A   Mostly Cloudy
5:57 PM 54.0 °F - 21.9 °F 29% 29.94 in 10.0 mi SW 18.4 mph 23.0 mph N/A   Clear
6:57 PM 52.0 °F - 23.0 °F 32% 29.96 in 10.0 mi SW 11.5 mph - N/A   Clear
7:57 PM 48.9 °F - 24.1 °F 38% 29.97 in 10.0 mi WSW 6.9 mph - N/A   Clear
8:57 PM 48.0 °F - 24.1 °F 39% 29.96 in 10.0 mi SW 11.5 mph - N/A   Clear
9:57 PM 46.0 °F 41.9 °F 24.1 °F 42% 29.98 in 10.0 mi WSW 8.1 mph - N/A   Clear
10:57 PM 45.0 °F 40.6 °F 23.0 °F 42% 29.97 in 10.0 mi WSW 8.1 mph - N/A   Clear
11:57 PM 44.1 °F 40.8 °F 23.0 °F 43% 29.97 in 10.0 mi West 5.8 mph - N/A   Clear